SCP
0 0 0 0 0 0 0 0 0 0 0 0 0 0 0 0 0 0 0 0 0 0 0 0 0 0 0 0 0 0 0 0 0 0 0 0 0 0 0 0 0 0 0
0 0 0 0 0 0 0 0 0 0 0 0 0 0 0 0 0 0 0 0 0 0 0 0 0 0 0 0 0 0 0 0 0 0 0 0 0 0 0 0 0 0 0
0 0 0 0 0 0 0 0 0 0 0 0 0 0 0 0 0 0 0 0 0 0 0 0 0 0 0 0 0 0 0 0 0 0 0 0 0 0 0 0 0 0 0
0 0 0 0 0 0 0 0 0 0 0 0 0 0 0 0 0 0 0 0 0 0 0 0 0 0 0 0 0 0 0 0 0 0 0 0 0 0 0 0 0 0 0
0 0 0 0 0 0 0 0 0 0 0 0 0 0 0 0 0 0 0 0 0 0 0 0 0 0 0 0 0 0 0 0 0 0 0 0 0 0 0 0 0 0 0
0 0 0 0 0 0 0 0 0 0 0 0 0 0 0 0 0 0 0 0 0 0 0 0 0 0 0 0 0 0 0 0 0 0 0 0 0 0 0 0 0 0 0
0 0 0 0 0 0 0 0 0 0 0 0 0 0 0 0 0 0 0 0 0 0 0 0 0 0 0 0 0 0 0 0 0 0 0 0 0 0 0 0 0 0 0
0 0 0 0 0 0 0 0 0 0 0 0 0 0 0 0 0 0 0 0 0 0 0 0 0 0 0 0 0 0 0 0 0 0 0 0 0 0 0 0 0 0 0
0 0 0 0 0 0 0 0 0 0 0 0 0 0 0 0 0 0 0 0 0 0 0 0 0 0 0 0 0 0 0 0 0 0 0 0 0 0 0 0 0 0 0
0 0 0 0 0 0 0 0 0 0 0 0 0 0 0 0 0 0 0 0 0 0 0 0 0 0 0 0 0 0 0 0 0 0 0 0 0 0 0 0 0 0 0
0 0 0 0 0 0 0 0 0 0 0 0 0 0 0 0 0 0 0 0 0 0 0 0 0 0 0 0 0 0 0 0 0 0 0 0 0 0 0 0 0 0 0
0 0 0 0 0 0 0 0 0 0 0 0 0 0 0 0 0 0 0 0 0 0 0 0 0 0 0 0 0 0 0 0 0 0 0 0 0 0 0 0 0 0 0
0 0 0 0 0 0 0 0 0 0 0 0 0 0 0 0 0 0 0 0 0 0 0 0 0 0 0 0 0 0 0 0 0 0 0 0 0 0 0 0 0 0 0
0 0 0 0 0 0 0 0 0 0 0 0 0 0 0 0 0 0 0 0 0 0 0 0 0 0 0 0 0 0 0 0 0 0 0 0 0 0 0 0 0 0 0
0 0 0 0 0 0 0 0 0 0 0 0 0 0 0 0 0 0 0 0 0 0 0 0 0 0 0 0 0 0 0 0 0 0 0 0 0 0 0 0 0 0 0
0 0 0 0 0 0 0 0 0 0 0 0 0 0 0 0 0 0 0 0 0 0 0 0 0 0 0 0 0 0 0 0 0 0 0 0 0 0 0 0 0 0 0
0 0 0 0 0 0 0 0 0 0 0 0 0 0 0 0 0 0 0 0 0 0 0 0 0 0 0 0 0 0 0 0 0 0 0 0 0 0 0 0 0 0 0
0 0 0 0 0 0 0 0 0 0 0 0 0 0 0 0 0 0 0 0 0 0 0 0 0 0 0 0 0 0 0 0 0 0 0 0 0 0 0 0 0 0 0
0 0 0 0 0 0 0 0 0 0 0 0 0 0 0 0 0 0 0 0 0 0 0 0 0 0 0 0 0 0 0 0 0 0 0 0 0 0 0 0 0 0 0
0 0 0 0 0 0 0 0 0 0 0 0 0 0 0 0 0 0 0 0 0 0 0 0 0 0 0 0 0 0 0 0 0 0 0 0 0 0 0 0 0 0 0
0 0 0 0 0 0 0 0 0 0 0 0 0 0 0 0 0 0 0 0 0 0 0 0 0 0 0 0 0 0 0 0 0 0 0 0 0 0 0 0 0 0 0
0 0 0 0 0 0 0 0 0 0 0 0 0 0 0 0 0 0 0 0 0 0 0 0 0 0 0 0 0 0 0 0 0 0 0 0 0 0 0 0 0 0 0
0 0 0 0 0 0 0 0 0 0 0 0 0 0 0 0 0 0 0 0 0 0 0 0 0 0 0 0 0 0 0 0 0 0 0 0 0 0 0 0 0 0 0
0 0 0 0 0 0 0 0 0 0 0 0 0 0 0 0 0 0 0 0 0 0 0 0 0 0 0 0 0 0 0 0 0 0 0 0 0 0 0 0 0 0 0
0 0 0 0 0 0 0 0 0 0 0 0 0 0 0 0 0 0 0 0 0 0 0 0 0 0 0 0 0 0 0 0 0 0 0 0 0 0 0 0 0 0 0
0 0 0 0 0 0 0 0 0 0 0 0 0 0 0 0 0 0 0 0 0 0 0 0 0 0 0 0 0 0 0 0 0 0 0 0 0 0 0 0 0 0 0
Wind_Speed
8 8 8 7 6 5 5 5 4 4 4 4 5 5 6 6 6 7 8 8 10 10 10 11 12 11 10 9 9 9 10 11 17 17 10 7 9 10 10 11 11 12 12
7 7 7 7 6 6 6 5 5 4 4 4 5 5 5 6 6 7 8 9 10 11 11 11 13 10 12 10 9 11 10 11 14 20 13 8 9 9 10 10 10 10 11
7 7 7 7 7 6 6 5 5 5 5 5 5 5 5 6 6 7 8 9 10 11 11 12 12 11 12 10 11 11 9 9 10 14 15 9 7 5 7 8 10 10 10
6 7 7 7 6 6 6 6 6 6 5 6 6 5 6 6 6 6 8 9 10 10 10 11 12 11 12 11 10 11 10 11 10 12 13 11 8 4 4 7 8 8 10
6 7 7 6 6 6 7 7 6 6 6 6 6 6 6 6 5 7 8 9 10 11 11 11 12 12 13 12 10 11 10 10 10 10 12 11 9 5 6 6 9 8 8
6 7 6 6 6 6 7 7 6 6 6 6 6 7 7 6 9 12 10 9 9 10 11 11 11 10 12 15 17 17 15 13 12 11 12 12 12 10 8 7 8 7 7
5 5 5 6 6 6 6 6 7 7 7 7 7 7 8 9 12 13 12 10 11 10 11 10 9 8 10 11 13 15 15 17 18 14 15 15 13 10 8 9 8 8 8
4 4 5 6 6 6 7 7 7 7 7 7 8 8 9 10 13 14 14 11 10 10 10 11 11 11 9 11 11 12 12 11 12 11 12 13 12 9 8 9 8 7 4
4 4 5 6 6 7 7 8 8 8 8 8 8 9 10 11 13 14 14 9 9 11 10 10 10 12 13 14 12 12 12 10 11 14 15 15 16 15 10 6 5 5 5
4 5 6 6 6 7 8 8 8 8 9 9 9 9 9 10 12 14 14 7 9 9 8 8 10 12 14 15 10 10 12 11 8 8 8 9 9 8 9 6 5 5 3
5 6 6 6 7 8 8 7 8 8 9 9 10 9 8 9 11 13 13 7 8 9 8 8 8 12 15 15 13 9 12 12 9 7 6 5 4 4 4 3 3 4 2
6 6 7 7 7 6 7 8 7 8 9 9 9 9 7 6 7 11 13 12 12 9 9 8 8 14 15 14 11 10 13 10 5 4 4 4 4 3 3 3 3 4 4
6 6 7 8 7 7 7 8 8 7 7 7 7 8 8 6 7 11 12 13 13 8 7 11 13 14 13 9 9 10 7 4 4 4 4 4 3 3 3 3 4 5 7
6 7 7 7 8 7 6 6 6 7 7 7 8 8 8 8 7 6 6 7 8 7 6 7 10 10 7 6 6 5 4 4 4 4 4 3 3 3 3 2 2 2 3
6 6 6 6 7 8 7 7 8 8 8 9 8 8 9 9 9 14 11 8 6 6 6 5 4 4 4 4 4 4 4 4 4 3 3 3 3 3 3 3 2 2 2
5 5 5 6 6 7 8 8 10 11 14 15 14 12 9 12 16 16 14 12 10 8 5 3 3 3 4 4 4 4 4 4 4 4 3 3 3 3 3 3 3 2 3
5 6 6 6 6 6 7 8 9 8 10 11 11 11 11 12 12 11 9 7 7 5 2 2 3 3 3 3 3 4 4 4 4 3 3 3 3 3 3 3 3 3 3
6 6 6 6 6 7 7 7 8 9 9 7 7 9 10 10 10 9 7 4 3 3 2 2 2 3 3 3 3 3 4 4 4 3 3 3 3 3 3 3 3 2 2
6 5 5 6 6 7 7 7 7 8 8 8 6 6 7 8 7 8 6 2 2 2 2 2 2 3 3 3 3 3 3 3 4 3 3 3 3 3 2 2 2 2 2
5 7 7 6 6 6 7 7 7 7 7 6 5 5 5 4 3 4 4 3 2 2 2 2 2 3 3 3 3 3 3 3 3 3 3 3 3 2 2 2 2 1 1
5 6 7 6 6 6 6 6 6 6 6 5 4 5 6 3 2 2 2 2 2 2 2 2 2 2 2 2 2 2 3 2 2 2 2 2 2 2 2 2 2 1 1
4 5 5 5 5 5 6 6 6 5 5 5 3 4 5 2 2 1 2 2 2 2 2 2 2 2 3 3 3 2 2 2 2 2 2 2 2 2 1 1 1 1 1
4 5 5 5 5 5 5 5 4 4 4 3 3 3 2 2 2 2 2 2 2 2 2 2 2 2 2 2 3 2 2 2 2 2 2 2 1 1 1 1 1 1 1
4 4 5 4 4 4 4 4 4 4 3 3 3 3 2 2 2 2 2 2 2 2 2 2 3 4 4 4 3 3 3 3 3 2 2 2 1 1 1 1 1 1 1
3 4 4 4 4 4 4 4 4 4 3 3 3 3 3 3 3 3 3 3 3 3 4 4 3 4 5 6 5 4 5 5 4 2 2 2 2 2 2 2 1 1 1
3 4 4 3 3 4 4 4 4 4 4 4 4 4 4 4 4 4 3 3 3 4 4 4 5 6 7 6 7 7 7 7 6 5 4 3 3 3 3 2 3 2 2
Wind_Direction
72 74 74 67 62 59 51 35 16 2 352 340 326 315 308 303 298 288 281 282 277 274 271 266 265 261 258 253 247 244 244 246 266 278 270 259 236 237 241 241 245 246 247
70 71 69 64 58 52 43 28 14 3 355 341 328 318 311 306 301 294 289 286 281 279 277 274 272 271 266 263 259 255 254 249 259 275 279 268 249 245 246 246 243 243 246
68 69 62 53 46 40 29 17 7 358 350 341 329 320 313 308 302 296 291 286 282 280 280 278 278 276 272 270 268 267 266 263 260 270 278 276 266 250 248 250 249 250 249
66 63 54 40 31 24 15 8 2 354 348 341 331 321 314 308 300 300 296 292 288 285 283 281 280 278 277 277 274 271 271 270 267 268 275 278 273 261 246 254 256 246 249
59 53 40 26 18 12 5 358 351 346 341 334 326 322 317 309 306 308 303 296 293 290 286 282 280 278 277 276 275 277 276 273 272 271 273 277 273 261 255 251 258 261 250
51 43 25 14 8 2 352 344 338 335 331 326 321 317 313 306 307 307 304 298 292 288 288 287 284 279 277 275 273 272 271 273 275 273 274 273 276 272 269 261 263 263 263
51 37 18 4 355 347 337 332 328 325 322 317 313 311 306 304 308 307 303 297 290 287 288 289 288 285 281 282 281 279 275 270 268 272 276 276 281 281 277 270 261 261 264
46 27 9 355 344 335 329 324 322 318 313 308 307 306 303 301 306 306 306 296 289 286 286 288 290 292 289 289 288 283 277 273 272 269 271 278 283 286 274 271 270 267 268
30 9 355 345 334 328 323 320 318 313 307 303 299 298 297 299 304 306 307 299 291 292 291 289 289 290 291 291 288 286 286 282 281 275 273 278 284 288 286 281 266 259 262
3 345 337 331 322 315 312 311 309 305 299 300 295 293 291 294 300 305 306 296 294 296 295 291 286 288 292 295 290 288 290 294 296 292 283 283 286 288 287 274 267 261 262
342 329 325 321 312 304 304 303 302 300 299 297 295 293 290 289 298 303 303 297 293 296 297 299 299 301 300 300 297 289 290 298 297 294 293 296 299 300 299 295 288 273 263
335 325 319 314 309 306 304 301 298 297 296 297 298 299 295 293 295 302 303 300 298 293 294 298 301 305 305 306 304 300 302 302 297 298 304 313 320 327 345 3 18 27 32
327 317 311 309 304 301 300 300 300 295 292 297 298 298 301 303 301 303 303 301 300 295 292 298 303 306 308 310 316 319 317 312 309 311 317 327 341 357 11 30 47 57 56
315 313 311 310 309 307 299 292 291 291 289 289 291 294 299 300 301 304 301 301 297 294 295 300 305 310 313 319 324 333 336 334 328 326 332 341 357 13 23 24 37 50 59
310 307 308 306 306 305 298 288 287 278 274 283 286 289 293 297 302 305 304 300 298 296 300 300 306 316 327 336 340 345 348 350 351 348 346 353 8 20 23 19 17 21 49
309 310 308 305 303 300 301 298 284 281 287 285 284 287 288 293 303 304 306 307 306 302 299 299 311 321 327 334 338 343 353 357 353 352 357 1 7 14 19 21 23 32 50
297 299 298 297 297 297 299 301 304 303 293 294 296 302 304 311 315 316 321 330 341 334 312 317 324 329 332 337 342 344 348 353 352 359 6 7 9 15 22 26 30 38 48
289 286 284 287 290 291 290 291 291 295 300 298 304 310 319 323 330 335 334 334 350 12 359 349 344 342 343 344 347 349 349 353 1 7 12 14 13 16 23 24 28 30 37
290 287 286 287 286 285 286 285 284 285 287 293 300 307 325 324 337 356 7 11 1 5 7 5 360 354 352 350 350 352 354 359 4 6 11 14 11 14 23 22 25 40 25
281 283 288 288 287 286 286 286 286 287 288 290 295 307 321 322 325 350 7 12 18 14 5 360 357 355 349 347 348 353 358 6 7 8 7 8 6 9 17 15 14 12 16
290 291 288 285 283 285 288 288 288 288 288 291 299 312 323 319 325 347 358 5 4 360 353 348 348 348 345 342 343 350 359 3 3 358 358 1 360 0 0 2 7 13 24
285 288 289 288 289 288 290 289 289 288 289 292 307 326 347 352 342 343 348 350 348 343 339 332 332 337 334 331 329 330 335 340 344 342 344 349 346 350 347 356 359 359 13
286 289 290 289 289 292 291 291 292 292 294 297 303 312 326 326 327 327 328 327 325 324 326 321 317 319 322 316 316 313 308 310 315 314 315 321 326 330 328 328 327 323 325
288 289 292 295 297 299 301 302 302 301 301 301 302 302 304 307 307 307 307 305 306 305 307 303 296 297 303 305 302 298 292 294 295 282 275 278 287 295 292 284 283 281 276
291 291 292 295 298 300 301 302 302 303 301 298 297 295 296 294 290 288 288 288 290 288 288 285 280 282 284 284 285 285 287 287 282 262 244 245 247 250 252 255 256 253 243
289 289 289 290 290 292 292 294 295 296 294 292 290 287 285 281 279 278 278 276 277 277 277 274 270 273 277 277 275 276 274 270 260 240 225 226 227 229 225 230 232 234 232